Nashua, NH

12:34 AM EDT on August 21, 2019 (GMT -0400)
Boire

Weather History for KASH - May, 2019

Change the Weather History Date:

Sunday, May 26, 2019

  Actual Average Record
Temperature  
Mean Temperature 68 °F -  
Max Temperature 86 °F 69 °F 90 °F (1965)
Min Temperature 53 °F 46 °F 28 °F (1972)
Cooling Degree Days 4    
Growing Degree Days 18 (Base 50)    
Moisture  
Dew Point 55 °F    
Average Humidity 65    
Maximum Humidity 100    
Minimum Humidity 36    
Precipitation  
Precipitation 0.02 in - - ()
Sea Level Pressure  
Sea Level Pressure 29.87 in    
Wind  
Wind Speed 6 mph ()    
Max Wind Speed 15 mph    
Max Gust Speed 30 mph    
Visibility 10.0 miles    
Events Rain    
Averages and records for this station are not official NWS values.
T = Trace of Precipitation, MM = Missing Value Source: Averaged Metar Reports

Daily Weather History Graph

Daily Weather History Graph

Search for Another Location

Airport or City:

Astronomy

May. 26, 2019 Rise Set
Actual Time 5:14 AM EDT 8:12 PM EDT
Civil Twilight 4:40 AM EDT 8:46 PM EDT
Nautical Twilight 3:57 AM EDT 9:29 PM EDT
Astronomical Twilight 3:07 AM EDT 10:19 PM EDT
Moon 1:40 AM EDT (5/26) 12:12 PM EDT (5/26)
Length of Visible Light 16h 05m
Length of Day
14h 58m
Waning Gibbous, 50% of the Moon is Illuminated
May 26
Waning Gibbous
May 26
Last Quarter
Jun 3
New
Jun 10
First Quarter
Jun 17
Full

Hourly Weather History & Observations

Time (EDT) Temp. Heat Index Dew Point Humidity Pressure Visibility Wind Dir Wind Speed Gust Speed Precip Events Conditions
12:56 AM 57.9 °F - 46.9 °F 67% 29.99 in 10.0 mi Variable 6.9 mph - 0.00 in Rain Light Rain
1:56 AM 53.1 °F - 52.0 °F 96% 29.98 in 10.0 mi SE 4.6 mph - 0.02 in Rain Light Rain
2:56 AM 53.1 °F - 52.0 °F 96% 29.95 in 10.0 mi Variable 3.5 mph - 0.00 in Rain Light Rain
3:56 AM 53.1 °F - 52.0 °F 96% 29.93 in 10.0 mi Variable 4.6 mph - 0.00 in   Overcast
4:17 AM 53.6 °F - 51.8 °F 94% 29.90 in 10.0 mi Variable 3.5 mph - N/A   Overcast
4:56 AM 53.1 °F - 53.1 °F 100% 29.92 in 10.0 mi ESE 4.6 mph - N/A   Overcast
5:24 AM 53.6 °F - 53.6 °F 100% 29.89 in 10.0 mi SE 4.6 mph - N/A   Scattered Clouds
5:56 AM 53.1 °F - 53.1 °F 100% 29.91 in 10.0 mi SSE 3.5 mph - 0.00 in   Overcast
6:56 AM 55.9 °F - 55.9 °F 100% 29.91 in 10.0 mi Calm Calm - N/A   Mostly Cloudy
7:56 AM 61.0 °F - 57.9 °F 90% 29.90 in 10.0 mi Variable 3.5 mph - N/A   Clear
8:56 AM 66.9 °F - 60.1 °F 79% 29.91 in 10.0 mi Calm Calm - N/A   Clear
9:56 AM 72.0 °F - 60.1 °F 66% 29.90 in 10.0 mi NW 10.4 mph - N/A   Partly Cloudy
10:56 AM 78.1 °F - 59.0 °F 52% 29.87 in 10.0 mi WNW 9.2 mph 16.1 mph N/A   Partly Cloudy
11:56 AM 81.0 °F 81.3 °F 59.0 °F 47% 29.85 in 10.0 mi West 12.7 mph 19.6 mph N/A   Partly Cloudy
12:56 PM 84.9 °F 84.4 °F 59.0 °F 41% 29.83 in 10.0 mi WNW 10.4 mph 20.7 mph N/A   Scattered Clouds
1:56 PM 84.0 °F 83.3 °F 57.0 °F 40% 29.81 in 10.0 mi WNW 15.0 mph 24.2 mph N/A   Scattered Clouds
2:56 PM 82.9 °F 82.6 °F 57.9 °F 42% 29.80 in 10.0 mi West 13.8 mph 29.9 mph N/A   Overcast
3:56 PM 84.9 °F 83.6 °F 55.0 °F 36% 29.78 in 10.0 mi West 15.0 mph 29.9 mph N/A   Mostly Cloudy
4:56 PM 84.0 °F 82.9 °F 55.0 °F 37% 29.78 in 10.0 mi West 12.7 mph - N/A   Mostly Cloudy
5:56 PM 82.9 °F 81.9 °F 54.0 °F 37% 29.79 in 10.0 mi West 9.2 mph 21.9 mph N/A   Mostly Cloudy
6:56 PM 82.0 °F 81.4 °F 55.0 °F 39% 29.79 in 10.0 mi West 6.9 mph - N/A   Mostly Cloudy
7:56 PM 79.0 °F - 55.9 °F 45% 29.80 in 10.0 mi West 3.5 mph - N/A   Scattered Clouds
8:56 PM 78.1 °F - 55.9 °F 46% 29.83 in 10.0 mi NW 4.6 mph - N/A   Mostly Cloudy
9:56 PM 75.0 °F - 53.1 °F 46% 29.85 in 10.0 mi NNW 5.8 mph - N/A   Mostly Cloudy
10:56 PM 72.0 °F - 54.0 °F 53% 29.86 in 10.0 mi NW 5.8 mph - N/A   Clear
11:56 PM 70.0 °F - 53.1 °F 55% 29.86 in 10.0 mi WNW 4.6 mph - N/A   Clear